RH
96 97 96 91 71 81 67 42 28 23 19 19 16 14 14 13 12 13 16 20 19 19 9 9 9 9 9 12 13 16 20 27 51 79 99 98 100 97
97 96 96 80 93 78 45 33 27 28 24 18 15 17 19 16 16 16 18 21 22 14 11 11 10 9 9 13 16 16 22 24 34 39 73 100 97 100
96 84 70 63 56 46 35 30 28 25 25 20 20 21 16 16 16 16 20 24 22 16 13 14 11 10 10 10 16 23 31 31 35 36 41 74 99 97
96 58 47 51 48 44 48 44 33 24 23 26 22 26 22 17 17 20 24 25 21 18 17 16 13 12 11 10 15 27 37 41 39 41 40 57 75 99
88 64 60 65 50 41 40 34 27 23 24 28 28 26 22 19 21 24 26 21 20 21 22 17 15 15 14 13 15 27 54 45 45 50 53 55 69 96
85 70 57 50 36 34 33 30 28 26 30 34 30 26 24 22 26 31 28 23 24 26 23 19 17 16 16 18 21 34 58 52 48 60 68 70 79 96
96 86 60 43 58 47 46 32 27 27 32 30 28 25 24 28 33 43 33 29 30 27 26 22 21 19 20 22 31 43 58 64 57 63 70 74 83 99
93 80 74 64 69 40 35 40 34 30 31 30 27 27 30 34 30 32 36 35 34 34 30 28 27 24 25 38 49 59 63 64 82 86 83 98 98 100
85 80 64 67 69 49 42 38 35 33 32 28 30 30 31 34 31 39 46 43 39 31 34 38 35 32 39 54 66 72 67 72 89 96 99 99 100 100
76 76 77 64 50 45 40 39 36 34 30 29 25 23 24 27 38 49 44 42 37 38 39 46 43 44 47 59 76 83 73 83 90 100 100 100 99 100
69 62 56 50 47 42 42 40 37 34 30 26 24 28 37 45 55 45 46 51 48 46 53 54 51 55 54 64 85 87 78 85 89 93 100 97 100 100
69 64 53 47 42 41 40 40 37 30 25 25 35 46 49 59 60 56 44 37 62 64 61 56 53 56 57 56 88 88 90 97 92 85 85 100 98 91
74 61 42 36 33 32 31 29 27 30 32 40 36 51 62 63 55 47 53 71 73 68 62 55 58 64 71 81 92 97 97 97 98 95 86 94 86 94
64 57 40 40 32 36 36 38 38 48 58 62 63 66 67 55 62 68 61 73 75 68 61 61 73 87 88 97 97 99 99 98 99 100 96 100 100 100
70 69 68 62 67 71 66 72 67 63 70 74 74 77 76 78 75 76 83 78 76 71 72 76 88 96 94 100 100 100 100 98 97 99 96 94 97 95
100 100 99 95 80 73 76 76 82 79 88 91 82 74 76 77 77 86 85 85 81 76 79 86 92 100 100 100 100 100 100 100 100 100 100 99 99 100
98 97 93 93 92 96 96 95 89 79 81 82 72 67 68 72 80 86 93 90 87 88 91 92 98 100 100 100 100 100 100 100 100 100 100 100 100 98
95 97 94 91 100 96 92 85 100 88 85 76 72 68 76 84 85 87 99 100 95 92 94 96 100 100 100 100 100 100 100 100 100 100 100 100 99 100
97 100 100 99 95 97 94 93 95 93 87 82 84 85 93 90 88 97 100 94 88 93 98 99 98 96 96 100 100 100 100 100 100 100 100 100 100 100
100 100 100 100 100 100 97 99 98 98 94 90 88 89 94 98 96 92 97 93 87 90 94 94 85 96 100 100 100 100 97 100 100 100 100 100 100 100
100 100 100 100 100 100 98 100 100 98 88 91 98 100 99 100 100 99 96 95 97 95 95 80 56 50 59 63 61 69 83 98 100 100 100 100 100 100
100 100 100 100 100 100 100 100 100 100 99 97 97 97 93 98 99 100 99 96 90 88 90 90 61 43 40 43 47 45 41 38 38 42 69 97 100 100
100 100 100 100 100 100 100 97 100 100 97 94 93 78 63 66 76 85 90 94 95 96 85 78 75 62 56 51 53 54 53 51 49 45 44 41 41 42
Wind_Speed
50 40 38 28 20 23 22 29 28 26 27 29 32 36 37 38 40 43 46 46 40 36 34 36 34 34 33 32 32 30 29 28 25 23 21 21 23 24
33 33 25 22 24 23 30 33 30 30 30 32 35 38 40 41 44 44 46 44 38 37 37 38 35 35 34 32 32 29 30 29 25 25 23 22 24 25
28 22 29 30 27 30 30 29 32 33 36 38 41 42 41 43 45 46 46 41 37 38 38 41 38 36 36 33 33 32 29 30 27 25 24 22 20 24
25 28 33 29 31 29 34 33 31 34 39 43 44 44 43 45 48 48 44 40 38 39 41 41 39 37 37 35 34 31 31 28 26 23 23 21 22 21
33 35 31 32 37 37 37 38 39 43 43 45 46 48 47 48 49 47 41 38 39 40 42 40 40 39 37 34 34 31 27 25 23 22 21 20 20 19
37 37 39 38 37 37 40 42 44 44 46 49 48 49 49 49 49 44 41 39 39 41 41 42 41 39 36 34 33 29 25 23 20 19 20 20 19 17
41 40 40 38 38 41 43 45 47 47 48 48 48 48 49 49 44 42 42 40 40 41 43 42 40 39 37 34 31 26 23 22 19 17 19 20 20 22
40 42 43 42 43 44 46 48 49 50 50 50 49 47 47 46 44 43 42 43 44 43 41 38 37 37 35 33 28 24 23 21 19 20 20 18 16 19
47 47 44 45 47 48 49 50 49 49 48 47 45 44 46 45 45 44 45 44 43 41 38 36 37 37 33 31 27 23 22 21 19 18 20 18 24 26
48 48 48 49 50 51 51 51 50 48 47 45 44 45 44 45 46 46 45 45 42 40 38 36 36 34 32 29 26 24 21 20 20 19 21 21 21 28
48 49 50 51 50 50 49 49 50 49 47 45 44 44 45 45 46 45 47 46 43 38 33 33 33 32 31 28 25 23 21 20 19 21 21 22 23 24
46 46 47 47 46 48 48 49 48 48 46 46 47 48 47 47 45 46 45 39 34 32 31 32 32 32 29 27 25 24 22 23 22 21 21 23 22 21
47 46 46 47 48 47 48 48 48 47 47 47 48 46 43 44 43 39 35 32 31 31 32 31 30 28 25 23 23 23 22 23 23 23 23 22 24 23
45 46 47 47 47 46 46 46 47 46 45 44 42 42 43 39 36 36 35 33 32 32 31 29 28 25 22 20 21 22 22 23 23 23 23 26 26 27
45 46 45 45 44 46 45 44 42 41 42 41 38 37 37 37 36 34 32 31 30 29 28 27 26 25 21 20 20 21 21 23 23 23 22 25 27 29
44 43 43 43 43 42 40 40 41 39 36 35 35 35 35 35 33 31 31 30 29 28 27 26 25 24 22 22 22 23 23 24 24 24 24 27 27 27
39 38 38 39 40 41 39 36 35 36 33 33 34 34 34 33 32 32 30 29 28 27 26 25 24 22 23 23 23 24 24 26 27 27 27 29 30 29
41 42 41 40 38 34 33 34 37 36 33 33 33 32 31 32 32 32 30 30 29 27 27 26 24 22 22 23 23 25 26 26 26 28 28 29 31 30
41 40 36 35 34 34 38 39 38 35 33 33 33 34 34 33 31 32 31 30 29 29 29 29 27 26 25 22 22 22 24 24 24 26 28 29 31 32
34 39 41 37 38 40 37 36 35 34 35 36 36 36 35 33 33 33 33 33 31 29 30 30 29 27 26 26 25 25 24 22 23 24 25 28 30 33
41 37 38 40 43 43 38 36 36 35 35 34 34 33 33 33 33 33 32 31 31 31 31 31 28 26 25 26 27 29 28 27 27 26 27 27 29 32
43 41 42 41 39 38 36 36 37 37 36 35 34 35 35 34 33 33 33 32 31 30 30 31 30 30 30 31 31 32 32 32 32 33 33 33 33 33
41 44 44 40 38 40 40 38 39 38 38 38 36 35 35 34 34 33 33 32 31 31 31 32 32 32 33 34 34 36 37 39 39 39 39 41 40 40
Wind_Direction
265 254 238 234 264 268 270 281 281 280 285 286 291 296 297 300 306 305 304 305 300 300 301 306 308 310 311 314 309 310 307 302 296 289 286 276 267 254
239 231 248 260 260 266 271 281 276 284 284 288 288 291 294 297 301 303 302 301 299 302 301 303 304 308 307 309 305 304 305 301 295 289 284 284 266 255
243 251 249 254 263 271 272 274 282 290 286 284 287 292 292 296 299 297 296 295 296 299 298 299 302 305 304 305 302 297 299 297 294 289 283 279 267 252
250 258 258 254 259 263 271 270 275 282 280 283 286 292 291 292 292 294 293 291 295 296 296 297 300 303 304 304 301 300 295 291 291 287 283 273 277 261
258 257 260 263 266 263 268 275 275 275 284 289 290 290 290 290 291 291 288 287 289 292 293 293 295 298 298 299 300 298 289 284 285 286 280 277 268 261
253 257 258 262 264 269 272 273 278 280 284 287 289 288 288 290 290 288 284 284 287 290 290 292 293 295 297 298 299 295 282 279 279 281 276 270 261 257
259 262 266 268 274 273 276 280 280 279 288 290 288 288 289 288 287 285 283 283 285 286 288 290 291 295 296 297 298 292 277 275 273 271 270 266 255 244
261 263 265 270 272 274 276 278 280 281 287 288 285 287 287 286 285 284 284 285 284 285 286 290 292 293 294 295 294 287 277 273 267 271 266 249 231 243
259 260 266 267 271 273 275 277 279 281 283 281 282 285 284 283 282 281 283 283 285 285 288 291 293 292 293 292 289 285 280 269 263 260 256 253 247 252
261 266 267 268 269 271 275 279 277 278 277 279 282 283 282 281 280 282 285 286 286 287 289 291 291 290 290 288 283 283 277 271 257 259 240 241 246 225
260 262 264 266 268 272 275 275 274 275 275 276 279 280 280 280 281 282 285 286 283 283 286 289 290 289 290 286 281 277 271 275 265 261 251 242 237 239
266 267 267 267 268 268 270 272 273 275 276 276 278 278 280 281 284 286 285 283 283 283 286 287 287 286 285 285 279 270 269 274 273 268 254 234 226 221
261 262 263 264 266 267 270 272 274 274 277 280 280 278 281 283 282 281 281 283 283 285 287 287 286 285 284 281 276 267 267 271 269 270 264 235 220 227
261 261 262 264 266 269 271 273 276 279 279 277 278 280 281 278 278 278 281 282 282 284 284 285 284 285 282 277 270 270 269 270 269 268 264 243 235 231
262 262 265 267 269 272 275 276 275 274 274 275 276 276 278 278 278 279 279 278 278 281 284 283 283 283 275 271 269 269 271 269 268 264 258 243 239 239
264 266 268 271 273 272 270 269 271 272 273 275 277 279 278 278 278 276 274 275 278 280 280 281 283 280 274 270 267 269 269 269 265 262 254 242 240 240
266 267 269 269 269 267 266 267 271 271 273 275 279 278 277 277 275 274 272 274 277 279 279 281 281 281 275 270 268 269 268 267 265 259 253 247 243 238
264 264 266 268 265 262 264 265 269 277 277 277 278 277 275 275 273 271 271 274 276 279 277 275 276 275 274 273 269 267 264 264 263 260 255 250 244 239
263 263 258 261 258 261 265 269 270 275 274 274 273 271 272 277 275 270 271 273 276 272 274 272 274 272 273 280 274 268 267 261 260 258 258 256 251 242
259 259 253 254 256 259 270 272 273 273 274 273 272 271 271 271 271 272 273 274 274 272 273 274 274 271 271 271 269 271 272 269 264 261 258 257 255 250
255 254 264 258 256 264 268 270 270 270 269 269 270 271 272 272 274 274 273 273 272 270 271 272 273 271 269 268 268 267 266 267 266 263 262 261 259 257
255 256 257 259 260 262 261 270 267 265 267 269 270 272 274 275 274 274 274 271 271 272 271 269 268 269 271 271 271 272 272 271 268 267 265 262 260 258
251 254 259 259 259 258 267 269 264 266 268 268 269 271 272 272 272 273 275 275 273 270 270 271 271 271 271 271 271 272 273 273 272 270 268 266 264 263